Starlink 32708

operational
NORAD ID: 62495 Int'l Des: 2025-003 Owner: SPXS Country: US Constellation: starlink
LEOCIRCULAR

关于 Starlink 32708

正在加载描述...

实时位置

正在加载3D地球...

即将过境

高度历史

Altitude vs Time

uPlot chart will show altitude changes over time

两行轨道根数

1 62495U 25003J 26033.60212503 .00026675 00000-0 97372-3 0 9996
2 62495 42.9990 127.2739 0001359 258.8491 101.2208 15.27635073 61186
Epoch: Feb 2, 2026 • Age: 21 hours

当前状态

高度 481.9 km
速度 7.63 km/s
星下点 9.09°N, 14.84°W
发射日期 Jan 6, 2025
运行时间 1 years
类型 internet

技术详情

分类 Payload
质量 730.00 kg
干质量 700.00 kg
总质量 730.00 kg
长度 0.30 m
直径 4.10 m
跨度 29.00 m
形状 Box + pan
制造商 SPXS
平台类型 Starlink V2M
阶段状态 In Orbit
所有者/国家 SPXS/US

大型星座

Loading constellations...